CW4498 Weather Reports


time (UTC)temp
C
wind
direction
speed
KPH
gust
KPH
rain 1hr
cm
rain 24hr
cm
rain mn
cm
humidity
%
barometer
mb
20260506183008 0 355 1.6 9.7 0.00 0.56 0.00 85 1034.9
20260506181506 0 88 0.0 4.8 0.00 0.56 0.00 86 1035.0
20260506180006 0 28 0.0 1.6 0.00 0.56 0.00 86 1035.1
20260506174504 0 280 0.0 3.2 0.00 0.58 0.00 88 1035.0
20260506173000 -1 280 0.0 1.6 0.00 0.58 0.00 88 1035.1
20260506171602 -1 280 0.0 3.2 0.00 0.58 0.00 89 1034.6
20260506170106 -2 280 0.0 4.8 0.00 0.58 0.00 87 1034.5
20260506164606 -2 312 1.6 4.8 0.00 0.61 0.00 89 1034.6
20260506163116 -2 54 0.0 4.8 0.00 0.61 0.00 89 1034.3
20260506161606 -1 38 0.0 3.2 0.00 0.61 0.00 88 1034.2
20260506160055 -1 38 0.0 3.2 0.00 0.61 0.00 89 1033.9
20260506154609 -1 311 0.0 3.2 0.00 0.61 0.00 88 1033.6
20260506153102 -1 311 0.0 4.8 0.00 0.61 0.00 89 1033.4
20260506151552 -2 135 0.0 3.2 0.00 0.61 0.00 88 1033.1
20260506150049 -2 58 0.0 3.2 0.00 0.61 0.00 89 1032.7
20260506144548 -2 301 0.0 4.8 0.00 0.61 0.00 89 1033.0
20260506143101 -2 290 0.0 4.8 0.00 0.61 0.00 89 1032.8
20260506141546 -2 51 0.0 9.7 0.00 0.61 0.00 89 1032.6
20260506140045 -2 341 0.0 3.2 0.00 0.61 0.00 90 1032.5
20260506134544 -2 34 1.6 4.8 0.00 0.61 0.00 91 1032.4
20260506133044 -3 60 0.0 3.2 0.00 0.61 0.00 91 1032.3
20260506131543 -3 321 0.0 4.8 0.00 0.61 0.00 91 1031.7
20260506130040 -3 315 0.0 6.4 0.00 0.61 0.00 91 1031.6
20260506124540 -3 318 1.6 9.7 0.00 0.61 0.00 91 1031.4
20260506123039 -3 35 1.6 8.0 0.00 0.61 0.00 92 1030.9
20260506121542 -3 346 0.0 3.2 0.00 0.61 0.00 92 1030.5
20260506120037 -3 55 0.0 1.6 0.00 0.61 0.00 92 1030.3
20260506114543 -3 27 0.0 6.4 0.00 0.61 0.00 92 1030.3
20260506113034 -3 58 0.0 4.8 0.00 0.61 0.00 92 1030.2
20260506111536 -3 269 0.0 4.8 0.00 0.61 0.00 92 1029.9
20260506110031 -2 30 0.0 3.2 0.00 0.61 0.00 92 1029.5
20260506104527 -2 50 0.0 6.4 0.00 0.61 0.00 92 1029.4
20260506103025 -2 34 0.0 6.4 0.00 0.61 0.00 91 1029.3
20260506101527 -2 327 1.6 8.0 0.00 0.61 0.00 91 1029.2
20260506100022 -2 348 1.6 11.3 0.00 0.61 0.00 91 1029.1
20260506094520 -2 305 0.0 4.8 0.00 0.61 0.00 91 1029.0
20260506093019 -2 23 0.0 4.8 0.00 0.61 0.00 91 1028.6
20260506091522 -2 31 1.6 4.8 0.00 0.61 0.00 91 1028.4
20260506090019 -2 28 0.0 4.8 0.00 0.61 0.00 91 1028.3
20260506084516 -2 55 1.6 9.7 0.00 0.61 0.00 91 1028.3
20260506083015 -2 315 1.6 8.0 0.00 0.61 0.00 91 1028.3
20260506081513 -2 303 0.0 4.8 0.00 0.61 0.00 92 1028.0
20260506073009 -2 46 0.0 4.8 0.00 0.61 0.00 92 1027.8
20260506071507 -2 39 0.0 6.4 0.00 0.61 0.00 92 1027.7
20260506061503 -2 105 0.0 6.4 0.00 0.61 0.61 93 1027.3
20260506044555 -2 42 0.0 3.2 0.00 0.61 0.61 94 1026.7
20260506043054 -2 44 0.0 4.8 0.00 0.61 0.61 94 1026.0
20260506041556 -1 317 0.0 3.2 0.00 0.61 0.61 94 1026.2
20260506040100 -1 313 0.0 1.6 0.00 0.61 0.61 94 1025.8
20260506034604 -1 51 0.0 4.8 0.00 0.61 0.61 94 1025.6
20260506033048 -1 66 0.0 6.4 0.00 0.61 0.61 94 1025.4
20260506031557 -1 314 0.0 3.2 0.00 0.61 0.61 94 1025.2
20260506030044 -1 314 0.0 1.6 0.00 0.61 0.61 94 1024.5
20260506024543 -1 313 0.0 1.6 0.00 0.61 0.61 94 1024.2
20260506023042 -1 314 0.0 3.2 0.00 0.61 0.61 94 1023.9
20260506021539 -1 313 0.0 3.2 0.00 0.61 0.61 94 1023.5
20260506020039 -1 313 0.0 3.2 0.00 0.61 0.61 94 1023.4
20260506014538 0 313 0.0 1.6 0.00 0.64 0.61 94 1023.0
20260506013036 0 313 0.0 4.8 0.00 0.64 0.61 94 1022.7
20260506011537 0 131 0.0 0.0 0.00 0.64 0.61 94 1022.5
20260506010041 0 130 0.0 1.6 0.00 0.64 0.61 94 1022.4
20260506004536 0 131 0.0 3.2 0.00 0.64 0.61 94 1022.2
20260506003037 0 113 0.0 3.2 0.00 0.64 0.61 94 1022.3
20260506001531 0 120 0.0 4.8 0.00 0.64 0.61 94 1022.1
20260506000032 0 107 1.6 8.0 0.00 0.64 0.61 94 1021.6
20260505234530 0 128 4.8 9.7 0.03 0.64 0.61 94 1021.0
20260505233030 0 128 4.8 12.9 0.05 0.64 0.61 94 1020.7
20260505231532 0 115 1.6 11.3 0.05 0.64 0.61 94 1020.5
20260505230031 0 59 4.8 14.5 0.08 0.64 0.61 94 1019.8
20260505224524 0 128 3.2 12.9 0.10 0.61 0.58 94 1019.7
20260505223023 0 119 3.2 11.3 0.08 0.58 0.56 94 1019.3
20260505221521 0 131 4.8 16.1 0.10 0.58 0.56 94 1019.3
20260505220019 0 78 1.6 11.3 0.08 0.53 0.51 94 1019.4
20260505214518 0 105 3.2 12.9 0.08 0.51 0.48 94 1019.6
20260505213017 0 119 3.2 11.3 0.10 0.51 0.48 94 1019.5
20260505211516 0 116 6.4 14.5 0.10 0.48 0.46 94 1019.5
20260505210023 0 96 3.2 12.9 0.10 0.46 0.43 93 1019.6
20260505204515 0 121 0.0 11.3 0.10 0.43 0.41 93 1019.7
20260505203013 0 128 4.8 9.7 0.13 0.41 0.38 93 1019.5
20260505201510 0 116 1.6 8.0 0.15 0.38 0.36 93 1019.3
20260505200017 1 124 3.2 12.9 0.18 0.36 0.33 93 1019.5
20260505194509 1 119 8.0 14.5 0.15 0.33 0.30 93 1019.5
20260505193006 1 119 4.8 11.3 0.15 0.28 0.25 93 1019.6
20260505191506 1 115 1.6 11.3 0.13 0.23 0.20 92 1019.4
20260505190004 1 101 3.2 9.7 0.10 0.18 0.15 92 1019.3
20260505184503 1 107 4.8 12.9 0.10 0.18 0.15 91 1019.2